Overview Statistics Trail Chart Weather Telemetry Raw packets
 

This is the latest recevied weather packets stored in our database for station/object KI5PFS. If no packets are shown the sender has not sent any weather packets the latest 10 day(s).

<< 39 40 41 42 43 44 45 >>
Time Temp. Humidity Pressure Rain* Wind** Luminosity Snow
1788027603 37.22° C 40% 1013.7 hPa 0 mm - - -
1788027003 37.22° C 38% 1013.9 hPa 0 mm - - -
1788026403 36.11° C 41% 1014 hPa 0 mm - - -
1788025803 37.22° C 40% 1014.1 hPa 0 mm - - -
1788025203 36.11° C 42% 1014.2 hPa 0 mm - - -
1788024603 36.11° C 41% 1014.3 hPa 0 mm - - -
1788024004 35° C 44% 1014.4 hPa 0 mm - - -
1788023403 35° C 45% 1014.5 hPa 0 mm - - -
1788022802 35° C 45% 1014.5 hPa 0 mm - - -
1788022203 35° C 45% 1014.5 hPa 0 mm - - -
1788021603 35° C 46% 1014.6 hPa 0 mm - - -
1788021003 35° C 48% 1014.6 hPa 0 mm - - -
1788020404 35° C 49% 1014.5 hPa 0 mm - - -
1788019803 33.89° C 50% 1014.6 hPa 0 mm - - -
1788019203 33.89° C 51% 1014.7 hPa 0 mm - - -
1788018603 33.89° C 52% 1014.9 hPa 0 mm - - -
1788018003 32.78° C 53% 1014.9 hPa 0 mm - - -
1788017403 32.78° C 54% 1014.8 hPa 0 mm - - -
1788016803 32.22° C 55% 1014.8 hPa 0 mm - - -
1788016203 32.22° C 56% 1014.7 hPa 0 mm - - -
1788015603 31.11° C 56% 1014.7 hPa 0 mm - - -
1788015003 32.22° C 57% 1014.8 hPa 0 mm - - -
1788014404 31.11° C 57% 1014.8 hPa 0 mm - - -
1788013804 31.11° C 58% 1014.9 hPa 0 mm - - -
1788013203 30° C 60% 1014.8 hPa 0 mm - - -

* Rain latest hour (hover to see other rain measurements)
** Current wind speed in m/s (hover to see current wind gust speed)